{"data":{"norad_id":59155,"intl_designator":"2024-044D","name":"STARLINK-31341","alt_names":[],"object_type":"PAYLOAD","status":"ACTIVE","operator":null,"country":"US","launch_date":"2024-03-04","launch_site_code":"AFETR","launch_vehicle":null,"mission":null,"orbit_class":"UNKNOWN","rcs_meters":null,"size_class":null,"mass_kg":null,"dimensions":null,"purposes":["comms"],"wikipedia_slug":null,"has_3d_model":false,"image_url":null,"decayed_at":null,"tle_current":{"epoch":"2026-09-20T21:00:52.553664Z","epoch_age_seconds":126370,"freshness":"FRESH","line1":"1 59155U 24044D   26263.87560826  .00002017  00000+0  82790-4 0  9999","line2":"2 59155  42.9968  88.4344 0001333 266.8244  93.2455 15.27584355143379","mean_motion":15.27584355,"eccentricity":0.0001333,"inclination_deg":42.9968,"raan_deg":88.4344,"arg_perigee_deg":266.8244,"mean_anomaly_deg":93.2455,"bstar":8.279e-5,"rev_number":14337,"period_min":94.266479967975,"perigee_km":482.12146126561,"apogee_km":483.95065000225,"semimajor_km":6861.1730556339,"source":"CELESTRAK","updated_at":"2026-09-21T09:00:34.038669Z"}}}